Weather reports worldwide

Advertisment
Newton Rigg, United Kingdom (99152): temperature & dewpoint: 21.04.2017 04:00:00 - 27.04.2017 04:00:00 (BST)Newton Rigg, United Kingdom (99152): temperature -20cm & temperature -100cm: 21.04.2017 04:00:00 - 27.04.2017 04:00:00 (BST)Newton Rigg, United Kingdom (99152): precipitation: 21.04.2017 04:00:00 - 27.04.2017 04:00:00 (BST)
Date & Time tt [°C] td [°C] tt -20cm [°C] tt -100cm [°C] rr [mm]
27.04.2017 04:00:00 - - - - -
27.04.2017 03:00:00 4,4 1,7 - - 0,0
27.04.2017 02:00:00 3,2 1,2 - - 0,0
27.04.2017 01:00:00 1,6 -0,8 - - 0,0
27.04.2017 00:00:00 2,5 -0,9 - - 0,0
26.04.2017 23:00:00 4,2 0,0 - - 0,0
26.04.2017 22:00:00 4,6 -0,5 - - 0,0
26.04.2017 21:00:00 4,7 -1,4 - - 0,0
26.04.2017 20:00:00 5,5 -1,5 - - 0,0
26.04.2017 19:00:00 6,2 -2,2 - - 0,0
26.04.2017 18:00:00 6,8 -3,4 - - 0,0
26.04.2017 17:00:00 7,2 -3,7 - - 0,0
26.04.2017 16:00:00 8,8 -3,0 - - 0,0
26.04.2017 15:00:00 8,7 -2,0 - - 0,0
26.04.2017 14:00:00 8,0 -1,1 - - 0,0
26.04.2017 13:00:00 6,8 -3,2 - - 0,0
26.04.2017 12:00:00 5,5 -3,4 - - 0,0
26.04.2017 11:00:00 6,0 -0,8 - - 0,0
26.04.2017 10:00:00 4,3 -1,8 8,9 9,0 0,0
26.04.2017 09:00:00 3,2 -2,4 - - 0,0
26.04.2017 08:00:00 1,4 -2,8 - - 0,0
26.04.2017 07:00:00 -0,7 -3,5 - - 0,0
26.04.2017 06:00:00 -0,9 -3,7 - - 0,0
26.04.2017 05:00:00 -0,5 -3,6 - - 0,0
26.04.2017 04:00:00 -0,1 -3,0 - - 0,0
26.04.2017 03:00:00 0,0 -2,6 - - 0,0
26.04.2017 02:00:00 0,2 -2,4 - - 0,0
26.04.2017 01:00:00 1,4 -2,1 - - 0,0
26.04.2017 00:00:00 1,8 -1,6 - - 0,0
25.04.2017 23:00:00 1,9 -0,6 - - 0,0
25.04.2017 22:00:00 2,5 -0,3 - - 0,0
25.04.2017 21:00:00 2,6 -0,6 - - 0,0
25.04.2017 20:00:00 3,2 0,0 - - 0,0
25.04.2017 19:00:00 2,2 0,5 - - 0,6
25.04.2017 18:00:00 5,1 2,0 - - 0,0
25.04.2017 17:00:00 5,7 0,5 - - 0,0
25.04.2017 16:00:00 4,6 0,4 - - 0,0
25.04.2017 15:00:00 3,7 0,7 - - 0,8
25.04.2017 14:00:00 3,5 -0,3 - - 1,8
25.04.2017 13:00:00 3,5 -1,8 - - 0,0
25.04.2017 12:00:00 5,4 -2,3 - - 0,0
25.04.2017 11:00:00 4,8 -2,2 - - 0,0
25.04.2017 10:00:00 4,0 -2,0 9,4 9,0 0,0
25.04.2017 09:00:00 3,4 -1,5 - - 0,0
25.04.2017 08:00:00 1,6 -2,6 - - 0,2
25.04.2017 07:00:00 -0,5 -2,9 - - 0,0
25.04.2017 06:00:00 -1,3 -2,6 - - 0,0
25.04.2017 05:00:00 -0,9 -2,3 - - 0,0
25.04.2017 04:00:00 -1,9 -3,2 - - 0,0
25.04.2017 03:00:00 -1,3 -2,8 - - 0,0
25.04.2017 02:00:00 -1,3 -2,5 - - 0,0
25.04.2017 01:00:00 -1,6 -3,5 - - 0,0
25.04.2017 00:00:00 -0,1 -3,3 - - 0,0
24.04.2017 23:00:00 0,1 -3,7 - - 0,0
24.04.2017 22:00:00 1,3 -3,6 - - 0,0
24.04.2017 21:00:00 0,7 -1,9 - - 0,2
24.04.2017 20:00:00 0,7 -1,0 - - 0,0
24.04.2017 19:00:00 2,5 -1,3 - - 0,4
24.04.2017 18:00:00 3,9 -2,3 - - 0,0
24.04.2017 17:00:00 7,3 -5,1 - - 0,0
24.04.2017 16:00:00 7,1 -2,3 - - 0,0
24.04.2017 15:00:00 6,9 -2,5 - - 0,0
24.04.2017 14:00:00 8,8 -1,1 - - 0,2
24.04.2017 13:00:00 7,8 -0,7 - - 0,0
24.04.2017 12:00:00 8,9 1,0 - - 0,0
24.04.2017 11:00:00 7,6 -0,7 - - 0,0
24.04.2017 10:00:00 7,6 1,4 9,7 9,0 0,0
24.04.2017 09:00:00 6,1 3,3 - - 0,0
24.04.2017 08:00:00 6,0 4,9 - - 1,2
24.04.2017 07:00:00 7,6 5,1 - - 0,0
24.04.2017 06:00:00 7,3 4,4 - - 0,0
24.04.2017 05:00:00 7,3 4,7 - - 0,0
24.04.2017 04:00:00 7,8 5,4 - - 0,0
24.04.2017 03:00:00 7,9 4,9 - - 0,0
24.04.2017 02:00:00 7,7 4,3 - - 0,0
24.04.2017 01:00:00 7,4 3,4 - - 0,0
24.04.2017 00:00:00 7,9 3,6 - - 0,0
23.04.2017 23:00:00 8,4 5,0 - - 0,0
23.04.2017 22:00:00 7,4 5,6 - - 0,0
23.04.2017 21:00:00 8,2 4,4 - - 0,0
23.04.2017 20:00:00 8,5 3,4 - - 0,0
23.04.2017 19:00:00 9,2 2,0 - - 0,0
23.04.2017 18:00:00 10,2 1,0 - - 0,0
23.04.2017 17:00:00 9,8 1,7 - - 0,0
23.04.2017 16:00:00 11,6 1,6 - - 0,0
23.04.2017 15:00:00 12,2 2,4 - - 0,0
23.04.2017 14:00:00 12,4 1,8 - - 0,0
23.04.2017 13:00:00 11,4 3,3 - - 0,0
23.04.2017 12:00:00 10,3 3,1 - - 0,0
23.04.2017 11:00:00 9,6 3,1 - - 0,0
23.04.2017 10:00:00 7,4 1,8 9,5 9,0 0,0
23.04.2017 09:00:00 6,1 2,1 - - 0,0
23.04.2017 08:00:00 2,6 1,4 - - 0,0
23.04.2017 07:00:00 0,1 -0,3 - - 0,0
23.04.2017 06:00:00 -0,6 -1,3 - - 0,0
23.04.2017 05:00:00 -0,1 -0,9 - - 0,0
23.04.2017 04:00:00 2,2 1,1 - - 0,0
23.04.2017 03:00:00 2,4 0,9 - - 0,0
23.04.2017 02:00:00 2,1 -0,1 - - 0,0
23.04.2017 01:00:00 3,4 0,2 - - 0,0
23.04.2017 00:00:00 4,3 0,2 - - 0,0
22.04.2017 23:00:00 5,5 1,2 - - 0,0
22.04.2017 22:00:00 6,8 2,7 - - 0,0
22.04.2017 21:00:00 6,6 2,8 - - 0,0
22.04.2017 20:00:00 7,8 2,2 - - 0,0
22.04.2017 19:00:00 9,6 1,2 - - 0,0
22.04.2017 18:00:00 11,1 1,2 - - 0,0
22.04.2017 17:00:00 11,2 -0,6 - - 0,0
22.04.2017 16:00:00 11,1 0,7 - - 0,0
22.04.2017 15:00:00 10,3 0,0 - - 0,0
22.04.2017 14:00:00 10,3 0,9 - - 0,0
22.04.2017 13:00:00 9,3 -0,2 - - 0,0
22.04.2017 12:00:00 8,3 0,6 - - 0,0
22.04.2017 11:00:00 8,2 0,0 - - 0,0
22.04.2017 10:00:00 7,7 1,9 9,5 8,9 0,0
22.04.2017 09:00:00 7,1 2,5 - - 0,0
22.04.2017 08:00:00 5,1 2,5 - - 0,0
22.04.2017 07:00:00 1,4 0,3 - - 0,0
22.04.2017 06:00:00 1,3 -0,5 - - 0,0
22.04.2017 05:00:00 2,0 -0,2 - - 0,0
22.04.2017 04:00:00 3,2 0,4 - - 0,0
22.04.2017 03:00:00 3,6 0,8 - - 0,0
22.04.2017 02:00:00 4,5 1,2 - - 0,0
22.04.2017 01:00:00 5,7 2,1 - - 0,0
22.04.2017 00:00:00 5,5 2,3 - - 0,0
21.04.2017 23:00:00 6,1 2,7 - - 0,0
21.04.2017 22:00:00 6,7 3,5 - - 0,0
21.04.2017 21:00:00 8,1 4,3 - - 0,0
21.04.2017 20:00:00 9,7 4,6 - - 0,0
21.04.2017 19:00:00 11,1 5,8 - - 0,0
21.04.2017 18:00:00 12,0 8,3 - - 0,0
21.04.2017 17:00:00 12,1 8,1 - - 0,0
21.04.2017 16:00:00 11,9 7,9 - - 0,0
21.04.2017 15:00:00 12,7 8,3 - - 0,0
21.04.2017 14:00:00 11,5 8,0 - - 0,0
21.04.2017 13:00:00 10,5 7,6 - - 0,0
21.04.2017 12:00:00 12,0 7,2 - - 0,0
21.04.2017 11:00:00 11,0 7,0 - - 0,0
21.04.2017 10:00:00 10,7 7,7 9,4 8,7 0,0
21.04.2017 09:00:00 9,6 7,3 - - 0,0
21.04.2017 08:00:00 9,6 6,4 - - 0,0
21.04.2017 07:00:00 9,1 7,0 - - 0,0
21.04.2017 06:00:00 9,0 6,6 - - 0,0
21.04.2017 05:00:00 8,9 6,7 - - 0,0
21.04.2017 04:00:00 9,3 6,3 - - 0,0

tt = temperature
td = dewpoint
tt -20cm = temperature -20cm
tt -100cm = temperature -100cm
rr = precipitation

Next stations